Date String (YYYY-MM-DD hh:mm:ss) UTC,Instrument flags,absolute air pressure of the measurement (hPa),sample flow rate (lpm),inlet stack bypass flow (lpm),air temperature of the measurement (°C),ambient temperature measured by the external sensor (°C),aerosol sample conditioner tube jacket temperature (°C),OPC LED temperature (°C),internal box temperature (°C),relative humidity of the measurement (%),span deviation,mass concentration of particles derived from Lorenz-Mie calculation of OPC scattering (μg/m³),mass concentration of particles derived from Lorenz-Mie calculation of OPC scattering (μg/m³),mass concentration of particles derived from Lorenz-Mie calculation of OPC scattering (μg/m³)
DateTimeUTC,F1_M11,P_M11,Q1_M11,Q2_M11,T1_M11,T2_M11,T3_M11,T4_M11,T5_M11,U1_M11,ZSPAN_M11,X0_M11,X2_M11,X1_M11
2023-06-28 09:00:00,SystemResetWarning,0829.0,5.00,000.00,030.6,028.6,000.0,039.1,031.7,24.8,0002.6,0021.03,0009.89,0007.94
2023-06-28 09:01:00,SystemResetWarning,0829.0,4.99,000.00,030.7,027.9,000.0,039.1,031.8,24.5,0002.8,0021.28,0009.91,0007.96
2023-06-28 09:02:00,SystemResetWarning,0828.9,5.00,000.00,030.7,025.7,000.0,039.0,031.8,25.9,0002.9,0021.49,0009.88,0007.95
2023-06-28 09:03:00,SystemResetWarning,0828.9,5.00,000.00,030.6,024.9,000.0,038.9,031.7,27.6,0002.8,0021.26,0009.70,0007.82
2023-06-28 09:04:00,SystemResetWarning,0828.9,5.01,000.00,030.5,025.1,000.0,038.9,031.3,27.3,0002.9,0020.49,0009.40,0007.64
2023-06-28 09:05:00,SystemResetWarning,0828.9,5.01,000.00,030.3,025.5,000.0,038.9,031.2,27.3,0003.3,0019.07,0009.23,0007.49
2023-06-28 09:06:00,SystemResetWarning,0829.0,5.00,000.00,030.3,026.0,000.0,038.9,031.2,25.6,0003.1,0018.26,0009.04,0007.32
2023-06-28 09:07:00,SystemResetWarning,0829.0,5.01,000.00,030.2,026.4,000.0,038.8,031.2,25.3,0002.9,0018.19,0008.75,0007.12
2023-06-28 09:08:00,SystemResetWarning,0829.1,4.99,000.00,030.2,026.8,000.0,038.8,031.2,25.7,0003.0,0017.92,0008.56,0006.98
2023-06-28 09:09:00,SystemResetWarning,0829.1,5.00,000.00,030.2,027.1,000.0,038.8,031.2,25.1,0003.2,0017.39,0008.36,0006.88
2023-06-28 09:10:00,SystemResetWarning,0829.1,5.00,000.00,030.2,027.3,000.0,038.8,031.3,24.0,0002.6,0017.26,0008.15,0006.74
2023-06-28 09:11:00,SystemResetWarning,0829.1,5.00,000.00,030.2,027.6,000.0,038.8,031.3,23.7,0000.0,0017.28,0008.05,0006.61
2023-06-28 09:12:00,SystemResetWarning,0829.1,5.00,000.00,030.2,027.7,000.0,038.8,031.4,23.7,0000.0,0016.98,0007.84,0006.42
2023-06-28 09:13:00,SystemResetWarning,0829.1,5.00,000.00,030.2,027.9,000.0,038.7,031.4,23.4,0000.0,0016.41,0007.61,0006.21
2023-06-28 09:14:00,SystemResetWarning,0829.1,4.99,000.00,030.2,028.0,000.0,038.7,031.4,22.6,0000.0,0015.84,0007.47,0006.14
2023-06-28 09:15:00,SystemResetWarning,0829.1,4.99,000.00,030.2,028.1,000.0,038.7,031.4,22.2,0000.0,0014.82,0007.44,0006.14
2023-06-28 09:16:00,SystemResetWarning,0829.1,5.00,000.00,030.2,028.2,000.0,038.7,031.4,22.1,0000.0,0014.12,0007.32,0006.09
2023-06-28 09:17:00,SystemResetWarning,0829.0,4.99,000.00,030.2,028.3,000.0,038.7,031.5,22.9,0000.0,0013.84,0007.21,0006.03
2023-06-28 09:18:00,SystemResetWarning,0829.0,4.99,000.00,030.2,028.3,000.0,038.7,031.5,23.3,0000.0,0014.54,0007.19,0006.01
2023-06-28 09:19:00,SystemResetWarning,0829.0,5.00,000.00,030.2,028.4,000.0,038.7,031.5,23.2,0000.0,0014.95,0007.22,0005.98
2023-06-28 09:20:00,SystemResetWarning,0829.0,4.99,000.00,030.2,028.4,000.0,038.7,031.6,22.7,0000.0,0015.06,0007.09,0005.87
2023-06-28 09:21:00,SystemResetWarning,0829.0,5.01,000.00,030.2,028.5,000.0,038.7,031.6,22.3,0000.0,0015.83,0007.00,0005.75
2023-06-28 09:22:00,SystemResetWarning,0829.0,5.01,000.00,030.3,028.5,000.0,038.8,031.6,22.6,0000.0,0015.72,0006.84,0005.63
2023-06-28 09:23:00,SystemResetWarning,0829.0,4.99,000.00,030.3,028.6,000.0,038.8,031.6,22.7,0000.0,0015.51,0006.76,0005.58
2023-06-28 09:24:00,SystemResetWarning,0829.1,4.99,000.00,030.3,028.5,000.0,038.8,031.7,22.9,0000.0,0015.63,0006.74,0005.56
2023-06-28 09:25:00,SystemResetWarning,0829.1,5.00,000.00,030.3,026.6,000.0,038.7,031.6,22.7,0000.0,0016.38,0006.73,0005.52
2023-06-28 09:26:00,SystemResetWarning,0829.1,5.01,000.00,030.3,025.0,000.0,038.6,031.5,23.3,0000.0,0016.66,0006.75,0005.48
2023-06-28 09:27:00,SystemResetWarning,0829.1,5.01,000.00,030.2,024.9,000.0,038.6,031.3,23.4,0000.0,0016.78,0006.73,0005.45
2023-06-28 09:28:00,SystemResetWarning,0829.1,5.01,000.00,030.1,025.3,000.0,038.6,031.1,22.9,0000.0,0017.05,0006.71,0005.45
2023-06-28 09:29:00,SystemResetWarning,0829.1,4.99,000.00,030.0,025.7,000.0,038.6,031.1,23.1,0000.0,0016.00,0006.71,0005.43
2023-06-28 09:30:00,SystemResetWarning,0829.0,5.01,000.00,030.0,026.2,000.0,038.6,031.1,23.1,0000.0,0015.72,0006.66,0005.42
2023-06-28 09:31:00,SystemResetWarning,0829.1,4.99,000.00,029.9,026.6,000.0,038.5,031.1,23.4,0000.0,0015.46,0006.70,0005.44
2023-06-28 09:32:00,SystemResetWarning,0829.1,4.99,000.00,029.9,026.9,000.0,038.5,031.1,22.9,0000.0,0014.40,0006.67,0005.46
2023-06-28 09:33:00,SystemResetWarning,0829.1,5.01,000.00,029.9,027.2,000.0,038.5,031.2,22.4,0000.0,0014.54,0006.67,0005.49
2023-06-28 09:34:00,SystemResetWarning,0829.1,5.02,000.00,029.9,027.4,000.0,038.5,031.2,22.1,0000.0,0014.72,0006.70,0005.50
2023-06-28 09:35:00,SystemResetWarning,0829.1,4.99,000.00,029.9,027.6,000.0,038.5,031.2,22.2,0000.0,0015.67,0006.71,0005.49
2023-06-28 09:36:00,SystemResetWarning,0829.1,5.00,000.00,029.9,027.7,000.0,038.5,031.2,22.4,0000.0,0015.43,0006.67,0005.49
2023-06-28 09:37:00,SystemResetWarning,0829.1,5.00,000.00,029.9,027.9,000.0,038.5,031.2,22.2,0000.0,0015.35,0006.60,0005.48
2023-06-28 09:38:00,SystemResetWarning,0829.1,5.00,000.00,029.9,028.0,000.0,038.5,031.3,22.2,0000.8,0015.19,0006.59,0005.48
2023-06-28 09:39:00,SystemResetWarning,0829.2,5.00,000.00,029.9,028.1,000.0,038.5,031.3,22.2,0002.1,0014.83,0006.58,0005.46
2023-06-28 09:40:00,SystemResetWarning,0829.2,5.00,000.00,029.9,028.1,000.0,038.5,031.3,22.3,0003.4,0014.75,0006.59,0005.45
2023-06-28 09:41:00,SystemResetWarning,0829.1,4.99,000.00,030.0,028.2,000.0,038.5,031.3,22.5,0003.7,0014.41,0006.54,0005.43
2023-06-28 09:42:00,SystemResetWarning,0829.2,5.00,000.00,030.0,028.3,000.0,038.5,031.4,22.7,0003.7,0015.01,0006.46,0005.38
2023-06-28 09:43:00,SystemResetWarning,0829.2,4.99,000.00,030.0,028.3,000.0,038.5,031.4,22.9,0000.0,0015.61,0006.44,0005.35
2023-06-28 09:44:00,SystemResetWarning,0829.2,5.01,000.00,030.0,028.4,000.0,038.5,031.4,22.8,0000.9,0015.19,0006.39,0005.30
2023-06-28 09:45:00,SystemResetWarning,0829.2,5.01,000.00,030.0,028.4,000.0,038.5,031.5,22.9,0001.4,0015.03,0006.32,0005.27
2023-06-28 09:46:00,SystemResetWarning,0829.2,5.01,000.00,030.0,028.4,000.0,038.5,031.5,22.8,0000.0,0013.71,0006.25,0005.24
2023-06-28 09:47:00,SystemResetWarning,0829.2,5.00,000.00,030.1,028.5,000.0,038.6,031.5,23.3,0000.0,0013.48,0006.26,0005.21
2023-06-28 09:48:00,SystemResetWarning,0829.3,4.98,000.00,030.1,028.5,000.0,038.6,031.5,24.1,0000.0,0013.99,0006.28,0005.18
2023-06-28 09:49:00,SystemResetWarning,0829.4,4.99,000.00,030.1,028.5,000.0,038.6,031.6,24.8,0000.0,0015.11,0006.33,0005.18
2023-06-28 09:50:00,SystemResetWarning,0829.4,4.99,000.00,030.1,028.6,000.0,038.6,031.6,24.6,0000.0,0015.42,0006.35,0005.18
2023-06-28 09:51:00,SystemResetWarning,0829.4,5.01,000.00,030.2,028.6,000.0,038.6,031.6,24.0,0000.0,0015.26,0006.32,0005.19
2023-06-28 09:52:00,SystemResetWarning,0829.4,4.99,000.00,030.2,027.0,000.0,038.6,031.7,23.4,0000.0,0015.50,0006.35,0005.20
2023-06-28 09:53:00,SystemResetWarning,0829.3,5.01,000.00,030.1,025.1,000.0,038.5,031.6,23.2,0000.0,0015.38,0006.39,0005.23
2023-06-28 09:54:00,SystemResetWarning,0829.2,5.01,000.00,030.1,024.9,000.0,038.5,031.4,24.1,0000.0,0015.40,0006.44,0005.25
2023-06-28 09:55:00,SystemResetWarning,0829.2,5.00,000.00,030.0,025.2,000.0,038.5,031.1,23.9,0000.0,0015.88,0006.52,0005.32
2023-06-28 09:56:00,SystemResetWarning,0829.2,5.00,000.00,029.9,025.6,000.0,038.4,031.1,23.7,0000.0,0015.47,0006.59,0005.39
2023-06-28 09:57:00,SystemResetWarning,0829.2,5.00,000.00,029.8,026.1,000.0,038.4,031.1,23.9,0000.0,0016.00,0006.64,0005.44
2023-06-28 09:58:00,SystemResetWarning,0829.3,4.99,000.00,029.8,026.5,000.0,038.4,031.1,24.6,0000.0,0015.88,0006.65,0005.46
2023-06-28 09:59:00,SystemResetWarning,0829.3,5.01,000.00,029.8,026.9,000.0,038.4,031.1,25.3,0000.0,0015.22,0006.69,0005.49
